TimeCST,TemperatureF,Dew PointF,Humidity,Sea Level PressureIn,VisibilityMPH,Wind Direction,Wind SpeedMPH,Gust SpeedMPH,PrecipitationIn,Events,Conditions,WindDirDegrees,DateUTC
12:53 AM,44.1,34.0,68,29.91,10.0,NNW,18.4,32.2,N/A,,Mostly Cloudy,330,2014-01-25 06:53:00
1:53 AM,41.0,34.0,76,29.92,10.0,NW,16.1,-,N/A,,Mostly Cloudy,320,2014-01-25 07:53:00
2:53 AM,42.1,35.1,76,29.93,10.0,WNW,17.3,-,N/A,,Overcast,300,2014-01-25 08:53:00
3:03 AM,42.1,35.1,76,29.90,10.0,WNW,13.8,-,N/A,,Overcast,300,2014-01-25 09:03:00
3:53 AM,43.0,35.1,74,29.93,10.0,NW,17.3,23.0,N/A,,Overcast,310,2014-01-25 09:53:00
4:22 AM,42.1,35.1,76,29.90,10.0,NW,20.7,34.5,N/A,,Mostly Cloudy,310,2014-01-25 10:22:00
4:53 AM,42.1,35.1,76,29.93,10.0,NW,23.0,28.8,N/A,,Mostly Cloudy,310,2014-01-25 10:53:00
5:53 AM,41.0,32.0,70,29.96,10.0,NW,26.5,33.4,N/A,,Mostly Cloudy,320,2014-01-25 11:53:00
6:53 AM,41.0,30.0,65,29.98,10.0,NNW,18.4,26.5,N/A,,Overcast,330,2014-01-25 12:53:00
7:49 AM,39.2,30.2,70,29.98,10.0,NW,16.1,-,N/A,,Overcast,320,2014-01-25 13:49:00
7:53 AM,39.9,30.9,70,30.01,10.0,NW,15.0,-,N/A,,Overcast,320,2014-01-25 13:53:00
8:23 AM,37.9,30.9,76,30.01,10.0,North,16.1,25.3,N/A,,Overcast,350,2014-01-25 14:23:00
8:53 AM,37.0,30.0,76,30.05,10.0,North,20.7,26.5,N/A,,Overcast,350,2014-01-25 14:53:00
9:30 AM,35.1,28.9,78,30.03,10.0,NE,9.2,-,N/A,,Overcast,40,2014-01-25 15:30:00
9:53 AM,34.0,28.0,79,30.07,10.0,NNE,4.6,-,N/A,,Overcast,20,2014-01-25 15:53:00
10:53 AM,34.0,27.0,75,30.09,10.0,NE,8.1,-,N/A,,Overcast,40,2014-01-25 16:53:00
11:00 AM,34.0,27.0,75,30.05,10.0,NNE,6.9,-,N/A,,Overcast,30,2014-01-25 17:00:00
11:25 AM,35.1,27.0,72,30.05,10.0,NNE,4.6,-,N/A,,Overcast,20,2014-01-25 17:25:00
11:40 AM,35.1,27.0,72,30.04,10.0,Calm,Calm,-,N/A,,Overcast,0,2014-01-25 17:40:00
11:53 AM,36.0,28.0,73,30.07,10.0,Variable,3.5,-,N/A,,Overcast,0,2014-01-25 17:53:00
12:53 PM,42.1,28.0,58,30.04,10.0,North,5.8,-,N/A,,Overcast,360,2014-01-25 18:53:00
1:53 PM,44.1,28.9,55,29.98,10.0,NNW,5.8,-,N/A,,Scattered Clouds,340,2014-01-25 19:53:00
2:53 PM,46.0,28.9,51,29.92,10.0,WSW,8.1,-,N/A,,Overcast,240,2014-01-25 20:53:00
3:53 PM,48.9,30.9,50,29.88,10.0,West,13.8,-,N/A,,Overcast,280,2014-01-25 21:53:00
4:53 PM,46.9,32.0,56,29.84,10.0,WSW,9.2,-,N/A,,Clear,240,2014-01-25 22:53:00
5:53 PM,44.1,32.0,63,29.80,10.0,SW,10.4,-,N/A,,Clear,220,2014-01-25 23:53:00
6:53 PM,39.9,30.0,68,29.75,10.0,SSW,10.4,-,N/A,,Clear,210,2014-01-26 00:53:00
7:53 PM,43.0,30.9,62,29.71,10.0,SW,17.3,-,N/A,,Clear,220,2014-01-26 01:53:00
8:53 PM,44.1,28.9,55,29.67,10.0,SW,18.4,-,N/A,,Clear,230,2014-01-26 02:53:00
9:53 PM,44.1,27.0,51,29.65,10.0,WSW,19.6,-,N/A,,Clear,240,2014-01-26 03:53:00
10:53 PM,44.1,25.0,47,29.65,10.0,West,10.4,-,N/A,,Clear,260,2014-01-26 04:53:00
11:53 PM,46.9,24.1,41,29.65,10.0,West,20.7,29.9,N/A,,Clear,270,2014-01-26 05:53:00